Weather in Rust

Germany     48°16′14″N   7°43′42″E
temp.,
°C
wind,
m/s
gust,
m/s
humid.,
%
clouds,
%
prec.,
mm/h
press.,
hPa
HPBL,
m
10 may, mon
mon1023:00+16sse2285100 0.3 100619
02:00+14s11848 0.8 100512
05:00+12ssw3889100 0.0 1007144
08:00+14ssw248487 0.0 1009172
11:00+18wnw2273100 0.0 1009634
14:00+15nnw4591100 0.9 1011292
17:00+12nne4794100 1.3 1011351
20:00+11ne3894100 1.7 1010397
11 may, tue
tue1123:00+11nne4897100 1.5 1010375
02:00+10nnw2599100 3.4 1011286
05:00+10nne2498100 0.6 1010247
08:00+10nne2498100 3.6 1010217
11:00+11n2393100 2.7 1009336
14:00+14sw3584100 3.6 1010795
17:00+15ssw5674100 0.3 10091150
20:00+13ssw4983100 0.6 1010444
12 may, wed
wed1223:00+11s5891100 0.4 1012249
02:00+10ssw4893100 0.6 1013289
05:00+9sw3595100 1.4 1013223
08:00+9ssw4695100 3.0 1014290
11:00+11wsw2383100 0.4 1013579
14:00+13nw2371100 0.9 10121015
17:00+14ne2368100 0.2 1012981
20:00+11ssw2287100 0.9 101239
13 may, thu
thu1323:00+9ssw2493100 0.5 1013118
02:00+9s2492100 0.5 1012120
05:00+9s2492100 0.0 1011124
08:00+10ssw238867 0.0 1011239
11:00+13ssw2277100 0.4 1010448
14:00+15nnw1268100 1.3 1009885
17:00+15w226688 0.8 1008963
20:00+12w2283100 2.8 100920
14 may, fri
fri1423:00+10sw118871 1.0 101011
02:00+8s229432 1.1 101027
05:00+8s229493 0.0 101078
08:00+9ssw22886 0.0 1010182
11:00+14w11715 0.0 1010679
14:00+17nw115749 0.0 10091361
17:00+17nnw215695 0.0 10081387
20:00+14nnw227298 0.3 100915